UTC,SampNum,MM/DD/YYYY,HH:MM:SS,VbatMain,VbiasPos,VbiasNeg,TC_cont,Humidity,Vrse,Vrse_std,Vk,Vk_std,Ik,Ib,Opt_PN,Opt_SN,Moxy,O2satper,TC_opt,Dphase,Bphase,Rphase,Bamp,Bpot,Ramp,Opt_rawtemp,TC_MCat,Cond,Pres,pSal,day_MC,month_MC,year_MC,time_MC,pH,CHa,NTU,flow,unix_time,TC_cont_flg,Moxy_flg,O2satper_flg,pSal_flg,pH_flg,CHa_flg,NTU_flg
2023-05-17 23:00:01+00:00,#0002950,05/17/2023,23:02:23,10.53,3.6,-3.55,14.14,52,-0.996549,5.5e-005,-0.847684,4.9e-005,-8.56,-1.948,5730,1914,258.806,80.074,13.813,32.739,33.488,39.878,6.39,850.3,681.5,422.2,14.0901,4.07374,0.098,33.8036,17,May,2023,23:02:55,6.99463140979044,,,0,1684364401,2,2,2,2,2,2,2
2023-05-17 23:20:01+00:00,#0002951,05/17/2023,23:22:22,10.49,3.6,-3.55,14.14,52,-0.981991,6.2e-005,-0.833694,0.000128,-1.17,-1.987,5730,1914,291.223,91.514,14.522,31.093,31.842,38.376,6.534,793.1,679.2,399.2,14.7817,4.10048,0.098,33.4481,17,May,2023,23:22:55,7.24498572153009,7.73,6.98,0,1684365601,2,2,2,2,2,2,2
2023-05-17 23:40:02+00:00,#0002952,05/17/2023,23:42:23,10.51,3.6,-3.55,14.53,52,-0.959324,5.4e-005,-0.80965,4.4e-005,-8.37,-2.003,5730,1914,309.815,97.809,14.735,30.315,31.064,37.679,6.615,766.1,676.9,392.3,14.9402,4.1133,0.097,33.4287,17,May,2023,23:42:55,7.6368276045794,8.89,6.74,0,1684366802,2,2,2,2,2,2,2
2023-05-18 00:00:02+00:00,#0002953,05/18/2023,00:02:23,10.51,3.61,-3.55,14.79,52,-0.948252,3.2e-005,-0.796097,5.7e-005,-15.95,-1.903,5730,1914,333.384,103.593,14.009,29.803,30.552,37.224,6.672,748.5,674.9,415.9,13.9765,4.02275,0.096,33.4302,18,May,2023,00:02:55,7.82696177355929,7.49,6.5,0,1684368002,2,2,2,2,2,2,2
2023-05-18 00:20:02+00:00,#0002954,05/18/2023,00:22:23,10.52,3.61,-3.55,14.4,52,-0.944437,2.3e-005,-0.789861,7.7e-005,-5,-1.907,5730,1914,316.78,98.096,13.853,30.429,31.178,37.856,6.678,770,675.6,421,13.8032,4.01097,0.094,33.4718,18,May,2023,00:22:55,7.90020091226103,7.31,6.5,0,1684369202,2,2,2,2,2,2,2
2023-05-18 00:40:02+00:00,#0002955,05/18/2023,00:42:23,10.5,3.61,-3.55,14.4,52,-0.94191,3.6e-005,-0.786751,3.9e-005,-6.41,-2.017,5730,1914,313.005,98.177,14.437,30.323,31.072,37.729,6.657,766.6,677.1,402,14.6045,4.09092,0.095,33.5136,18,May,2023,00:42:55,7.94508321464948,8.53,6.5,0,1684370402,2,2,2,2,2,2,2
2023-05-18 01:00:02+00:00,#0002956,05/18/2023,01:02:23,10.51,3.61,-3.55,14.92,52,-0.938649,1.7e-005,-0.782914,4e-005,-12.65,-2.038,5730,1914,329.227,102.437,14.069,29.916,30.665,37.325,6.66,752.9,676.6,413.9,14.122,4.03455,0.094,33.4131,18,May,2023,01:02:55,7.99279826502467,8.28,6.5,0,1684371602,2,2,2,2,2,2,2
2023-05-18 01:20:02+00:00,#0002957,05/18/2023,01:22:23,10.51,3.61,-3.55,14.53,52,-0.938349,1.3e-005,-0.781448,3.7e-005,-5.92,-1.969,5730,1914,322.472,99.65,13.758,30.271,31.02,37.689,6.669,765,676.4,424,13.7332,3.99771,0.094,33.4095,18,May,2023,01:22:55,8.00401444171035,6.82,6.5,0,1684372802,2,2,2,2,2,2,2
2023-05-18 01:40:02+00:00,#0002958,05/18/2023,01:42:23,10.5,3.61,-3.55,14.4,52,-0.939361,1.1e-005,-0.781032,2.6e-005,-2.46,-1.926,5730,1914,316.09,96.842,13.37,30.653,31.402,38.063,6.66,778.3,677.3,436.6,13.2726,3.96197,0.092,33.4783,18,May,2023,01:42:55,7.98925912491799,5.66,6.5,0,1684374002,2,2,2,2,2,2,2
2023-05-18 02:00:02+00:00,#0002959,05/18/2023,02:02:23,10.5,3.61,-3.55,14.14,52,-0.940807,1.3e-005,-0.781486,6.2e-005,-12.61,-1.887,5730,1914,304.486,92.835,13.152,31.164,31.913,38.553,6.639,795.9,679.6,443.6,13.1025,3.94762,0.09,33.4927,18,May,2023,02:02:55,7.9680960103979,4.93,6.5,0,1684375202,2,2,2,2,2,2,2
2023-05-18 02:20:02+00:00,#0002960,05/18/2023,02:22:23,10.51,3.61,-3.55,14.02,52,-0.941923,1.1e-005,-0.781361,5e-005,-6.59,-1.811,5730,1914,297.842,89.853,12.68,31.615,32.364,38.984,6.62,811.8,681.5,458.9,12.6343,3.90127,0.088,33.4668,18,May,2023,02:22:55,7.94997849833448,4.51,6.5,0,1684376402,2,2,2,2,2,2,2
2023-05-18 02:40:02+00:00,#0002961,05/18/2023,02:42:23,10.48,3.6,-3.55,13.5,52,-0.943355,1.1e-005,-0.782011,4.6e-005,-9.18,-1.825,5730,1914,287.65,86.49,12.532,32.077,32.826,39.426,6.6,828,684.3,463.6,12.4949,3.89529,0.087,33.5337,18,May,2023,02:42:55,7.93367367971464,4.32,6.26,0,1684377602,2,2,2,2,2,2,2
2023-05-18 03:00:02+00:00,#0002962,05/18/2023,03:02:23,10.47,3.6,-3.55,12.98,52,-0.9443,1.2e-005,-0.78262,5.9e-005,-13.83,-1.875,5730,1914,282.116,84.926,12.584,32.277,33.026,39.613,6.587,835.3,686.4,461.9,12.631,3.90969,0.089,33.5503,18,May,2023,03:02:55,7.92514706515251,4.51,6.5,0,1684378802,2,2,2,2,2,2,2
2023-05-18 03:20:01+00:00,#0002963,05/18/2023,03:22:22,10.49,3.6,-3.54,13.11,52,-0.944626,1.1e-005,-0.782631,2.2e-005,-6.9,-1.791,5730,1914,280.501,84.095,12.403,32.422,33.171,39.743,6.572,840.4,687.3,467.8,12.3965,3.88579,0.091,33.5305,18,May,2023,03:22:54,7.91716233778969,4.38,6.5,0,1684380001,2,2,2,2,2,2,2
2023-05-18 03:40:02+00:00,#0002964,05/18/2023,03:42:23,10.5,3.6,-3.54,12.98,52,-0.944847,7e-006,-0.782929,5.6e-005,-8.74,-1.886,5730,1914,276.793,83.607,12.735,32.431,33.18,39.742,6.562,841.2,688.3,457.1,12.8137,3.9271,0.093,33.5538,18,May,2023,03:42:55,7.9155621389363,4.63,6.5,0,1684381202,2,2,2,2,2,2,2
2023-05-18 04:00:02+00:00,#0002965,05/18/2023,04:02:23,10.48,3.6,-3.54,12.85,52,-0.944566,1.3e-005,-0.782338,1.3e-005,-9.77,-1.817,5730,1914,277.485,83.504,12.57,32.474,33.223,39.768,6.545,842.2,687.6,462.4,12.602,3.90574,0.094,33.5384,18,May,2023,04:02:55,7.92225391479737,4.63,6.26,0,1684382402,2,2,2,2,2,2,2
2023-05-18 04:20:01+00:00,#0002966,05/18/2023,04:22:22,10.47,3.6,-3.55,13.24,52,-0.943728,2.1e-005,-0.78222,4e-005,-0.96,-1.908,5730,1914,274.937,84.255,13.382,32.228,32.977,39.521,6.544,834,687.9,436.2,13.6074,3.98702,0.094,33.4195,18,May,2023,04:22:54,7.92942469847265,6.52,6.5,0,1684383601,2,2,2,2,2,2,2
2023-05-18 04:40:01+00:00,#0002967,05/18/2023,04:42:22,10.49,3.6,-3.55,13.63,52,-0.940448,3e-005,-0.780005,5.7e-005,-5.11,-1.961,5730,1914,298.583,92.132,13.692,31.158,31.907,38.449,6.542,797,685.9,426.2,13.925,4.01615,0.097,33.4138,18,May,2023,04:42:54,7.98108708304028,7.49,6.26,0,1684384801,2,2,2,2,2,2,2
2023-05-18 05:00:02+00:00,#0002968,05/18/2023,05:02:23,10.51,3.6,-3.55,13.89,52,-0.938106,1.4e-005,-0.778388,1.9e-005,-1.66,-2.047,5730,1914,312.571,97.286,14.084,30.483,31.232,37.794,6.562,773.3,683.1,413.5,14.2663,4.05191,0.097,33.4481,18,May,2023,05:02:55,8.01871164531236,8.53,6.02,0,1684386002,2,2,2,2,2,2,2
2023-05-18 05:20:01+00:00,#0002969,05/18/2023,05:22:22,10.5,3.6,-3.55,14.4,52,-0.935307,2.1e-005,-0.776774,4.4e-005,-9.36,-1.995,5730,1914,329.67,103.394,14.432,29.755,30.504,37.1,6.596,747.9,680.2,402.1,14.6817,4.08133,0.097,33.3596,18,May,2023,05:22:54,8.05863004842674,9.26,6.02,0,1684387201,2,2,2,2,2,2,2
2023-05-18 05:40:01+00:00,#0002970,05/18/2023,05:42:22,10.51,3.6,-3.55,14.53,52,-0.932358,2.4e-005,-0.774788,3.6e-005,-6.56,-2.036,5730,1914,353.706,111.14,14.518,28.962,29.711,36.347,6.636,719.8,677.5,399.4,14.6817,4.08237,0.096,33.369,18,May,2023,05:42:54,8.10839608537179,9.99,6.02,0,1684388401,2,2,2,2,2,2,2
2023-05-18 06:00:01+00:00,#0002971,05/18/2023,06:02:22,10.52,3.6,-3.55,14.92,52,-0.930427,2.1e-005,-0.773696,3.1e-005,-7.55,-1.97,5730,1914,363.753,114.617,14.646,28.615,29.364,36.029,6.665,707.5,675.5,395.2,14.7785,4.09144,0.094,33.3686,18,May,2023,06:02:55,8.13601390081167,9.2,6.02,0,1684389601,2,2,2,2,2,2,2
2023-05-18 06:20:01+00:00,#0002972,05/18/2023,06:22:22,10.52,3.61,-3.55,15.18,52,-0.929002,1.8e-005,-0.772798,3.2e-005,-12.71,-2.041,5730,1914,373.919,117.838,14.653,28.322,29.071,35.774,6.703,697.2,674,395,14.7473,4.08731,0.094,33.3577,18,May,2023,06:22:55,8.1566326392103,9.2,6.02,0,1684390801,2,2,2,2,2,2,2
2023-05-18 06:40:01+00:00,#0002973,05/18/2023,06:42:22,10.55,3.61,-3.55,15.43,52,-0.928608,2.2e-005,-0.772898,2.2e-005,-8.92,-2.025,5730,1914,375.662,118.357,14.642,28.278,29.027,35.739,6.712,695.4,673.1,395.3,14.719,4.08384,0.091,33.3505,18,May,2023,06:42:55,8.15941548898559,9.32,5.78,0,1684392001,2,2,2,2,2,2,2
2023-05-18 07:00:01+00:00,#0002974,05/18/2023,07:02:22,10.52,3.61,-3.55,15.05,52,-0.928275,1.9e-005,-0.772539,5.2e-005,-9.68,-2.055,5730,1914,375.365,118.134,14.591,28.306,29.055,35.779,6.725,696.4,672.6,397,14.6474,4.07609,0.092,33.3412,18,May,2023,07:02:55,8.17119101967458,8.65,5.78,0,1684393201,2,2,2,2,2,2,2
2023-05-18 07:20:01+00:00,#0002975,05/18/2023,07:22:22,10.53,3.61,-3.55,15.18,52,-0.927874,1.3e-005,-0.772344,4.8e-005,-8.58,-2.094,5730,1914,374.564,117.843,14.576,28.334,29.083,35.811,6.728,697.5,672.6,397.5,14.623,4.07484,0.091,33.3507,18,May,2023,07:22:55,8.17625040839546,8.28,5.78,0,1684394401,2,2,2,2,2,2,2
2023-05-18 07:40:01+00:00,#0002976,05/18/2023,07:42:22,10.51,3.61,-3.55,15.05,52,-0.927587,1.4e-005,-0.772316,3e-005,-6.93,-2.052,5730,1914,375.527,118.117,14.565,28.311,29.06,35.784,6.724,696.6,672.6,397.8,14.6146,4.07366,0.092,33.3472,18,May,2023,07:42:54,8.18330718742976,8.16,5.78,0,1684395601,2,2,2,2,2,2,2
2023-05-18 08:00:01+00:00,#0002977,05/18/2023,08:02:22,10.51,3.61,-3.55,15.05,52,-0.927316,1.8e-005,-0.772292,5.4e-005,-4.41,-2.034,5730,1914,376.669,118.589,14.609,28.263,29.012,35.737,6.725,695.1,672.7,396.4,14.6751,4.07861,0.092,33.3404,18,May,2023,08:02:55,8.18795000721916,8.04,5.78,0,1684396801,2,2,2,2,2,2,2
2023-05-18 08:20:01+00:00,#0002978,05/18/2023,08:22:22,10.53,3.61,-3.55,15.05,52,-0.927199,1.3e-005,-0.772234,7.6e-005,-11.95,-2.087,5730,1914,376.674,118.521,14.582,28.273,29.022,35.745,6.723,695.4,672.7,397.3,14.6353,4.07557,0.089,33.3468,18,May,2023,08:22:55,8.19008659474554,7.98,5.78,0,1684398001,2,2,2,2,2,2,2
2023-05-18 08:40:01+00:00,#0002979,05/18/2023,08:42:22,10.51,3.61,-3.55,14.92,52,-0.927128,1.5e-005,-0.772478,7.9e-005,-17.32,-2.065,5730,1914,376.34,118.497,14.613,28.27,29.019,35.742,6.723,695.3,672.6,396.3,14.6647,4.07946,0.089,33.3571,18,May,2023,08:42:55,8.19356770096913,7.86,5.78,0,1684399201,2,2,2,2,2,2,2
2023-05-18 09:00:01+00:00,#0002980,05/18/2023,09:02:22,10.55,3.61,-3.55,15.43,52,-0.927252,1.5e-005,-0.772746,7e-005,-9.28,-2.06,5730,1914,376,118.262,14.563,28.299,29.048,35.774,6.726,696.4,672.6,397.9,14.6075,4.07325,0.087,33.3495,18,May,2023,09:02:55,8.18308289899759,7.73,5.78,0,1684400401,2,2,2,2,2,2,2
2023-05-18 09:20:01+00:00,#0002981,05/18/2023,09:22:22,10.53,3.61,-3.55,15.3,52,-0.927395,2.1e-005,-0.773067,5e-005,-11.69,-2.083,5730,1914,373.972,117.708,14.596,28.343,29.092,35.816,6.724,698,672.8,396.8,14.6651,4.07767,0.086,33.3405,18,May,2023,09:22:55,8.18254879872659,7.67,5.78,0,1684401601,2,2,2,2,2,2,2
2023-05-18 09:40:01+00:00,#0002982,05/18/2023,09:42:22,10.54,3.61,-3.55,15.3,52,-0.927534,1.2e-005,-0.773314,6.2e-005,-10.89,-2.123,5730,1914,373.013,117.384,14.588,28.373,29.122,35.846,6.724,698.9,672.7,397.1,14.6321,4.07763,0.085,33.3684,18,May,2023,09:42:55,8.18051455270719,7.98,5.78,0,1684402801,2,2,2,2,2,2,2
2023-05-18 10:00:01+00:00,#0002983,05/18/2023,10:02:22,10.53,3.61,-3.55,15.18,52,-0.927889,1.4e-005,-0.77377,5.8e-005,-6.58,-2.099,5730,1914,370.59,116.73,14.63,28.425,29.174,35.899,6.725,700.7,672.7,395.7,14.6869,4.08302,0.085,33.3705,18,May,2023,10:02:55,8.17626821899102,8.71,6.02,0,1684404001,2,2,2,2,2,2,2
2023-05-18 10:20:01+00:00,#0002984,05/18/2023,10:22:22,10.53,3.61,-3.55,15.56,52,-0.928013,1.4e-005,-0.773977,4.7e-005,-5.57,-2.071,5730,1914,369.569,116.334,14.601,28.465,29.214,35.941,6.727,702,672.6,396.7,14.6537,4.0793,0.084,33.3651,18,May,2023,10:22:55,8.16792755890657,9.13,6.02,0,1684405201,2,2,2,2,2,2,2
2023-05-18 10:40:01+00:00,#0002985,05/18/2023,10:42:22,10.52,3.61,-3.55,14.92,52,-0.928486,1.7e-005,-0.774263,5.9e-005,-2.16,-2.114,5730,1914,368.538,115.565,14.425,28.562,29.311,36.033,6.721,705.3,672.5,402.4,14.4497,4.06021,0.086,33.366,18,May,2023,10:42:55,8.16993524098882,8.34,5.78,0,1684406401,2,2,2,2,2,2,2
2023-05-18 11:00:01+00:00,#0002986,05/18/2023,11:02:22,10.53,3.61,-3.55,14.92,52,-0.929072,1.2e-005,-0.774809,2.3e-005,-1.11,-2.154,5730,1914,363.961,114.115,14.419,28.697,29.446,36.165,6.719,710.1,673.2,402.6,14.4595,4.06169,0.086,33.371,18,May,2023,11:02:55,8.1597538426148,8.34,5.78,0,1684407601,2,2,2,2,2,2,2
2023-05-18 11:20:01+00:00,#0002987,05/18/2023,11:22:22,10.54,3.61,-3.55,15.18,52,-0.929695,1e-005,-0.775211,5.8e-005,-13.46,-2.089,5730,1914,360.932,112.692,14.227,28.86,29.609,36.324,6.714,716,673.6,408.8,14.2351,4.04123,0.085,33.3768,18,May,2023,11:22:55,8.14478949167385,8.53,5.78,0,1684408801,2,2,2,2,2,2,2
2023-05-18 11:40:01+00:00,#0002988,05/18/2023,11:42:22,10.52,3.61,-3.55,14.79,52,-0.93096,6e-006,-0.776001,2.7e-005,-3.87,-2.047,5730,1914,353.664,109.675,13.918,29.2,29.949,36.654,6.705,727.8,674.3,418.9,13.8763,4.01208,0.087,33.4184,18,May,2023,11:42:55,8.12945801160636,8.16,5.78,0,1684410001,2,2,2,2,2,2,2
2023-05-18 12:00:01+00:00,#0002989,05/18/2023,12:02:22,10.52,3.61,-3.55,14.53,52,-0.932452,1e-005,-0.777107,1.8e-005,-4.49,-1.975,5730,1914,341.502,105.964,13.944,29.568,30.317,37.012,6.695,740.8,675.9,418,13.9655,4.01877,0.088,33.4029,18,May,2023,12:02:55,8.10722985098837,7.13,5.78,0,1684411201,2,2,2,2,2,2,2
2023-05-18 12:20:01+00:00,#0002990,05/18/2023,12:22:22,10.54,3.61,-3.55,14.66,52,-0.933488,1e-005,-0.777626,5.4e-005,-3.63,-2.019,5730,1914,334.119,102.838,13.578,29.954,30.703,37.389,6.686,754.1,676.7,429.9,13.5366,3.98243,0.089,33.4385,18,May,2023,12:22:55,8.08753952422418,7.61,5.78,0,1684412401,2,2,2,2,2,2,2
2023-05-18 12:40:01+00:00,#0002991,05/18/2023,12:42:22,10.54,3.61,-3.55,14.53,52,-0.934592,1.1e-005,-0.7785,7.2e-005,1.77,-2.004,5730,1914,330.875,102.147,13.714,30.006,30.755,37.432,6.677,756.3,678.4,425.5,13.7508,4.00261,0.089,33.4397,18,May,2023,12:42:55,8.07026082163282,7,5.78,0,1684413601,2,2,2,2,2,2,2
2023-05-18 13:00:01+00:00,#0002992,05/18/2023,13:02:22,10.53,3.61,-3.55,14.53,52,-0.935239,1.3e-005,-0.779053,4.4e-005,-5.16,-1.992,5730,1914,321.554,99.469,13.805,30.283,31.032,37.7,6.667,765.7,678.9,422.5,13.8623,4.01103,0.09,33.4209,18,May,2023,13:02:55,8.05865975174702,6.21,5.78,0,1684414801,2,2,2,2,2,2,2
2023-05-18 13:20:02+00:00,#0002993,05/18/2023,13:22:22,10.52,3.61,-3.55,14.4,52,-0.935731,9e-006,-0.779089,4.2e-005,-6.85,-1.978,5730,1914,317.086,97.165,13.379,30.615,31.364,38.023,6.659,776.9,678.6,436.3,13.3529,3.96671,0.093,33.4522,18,May,2023,13:22:55,8.05251167882355,7.37,5.78,0,1684416002,2,2,2,2,2,2,2
2023-05-18 13:40:01+00:00,#0002994,05/18/2023,13:42:22,10.51,3.61,-3.55,14.53,52,-0.93686,1.5e-005,-0.779913,2.3e-005,-9.78,-1.998,5730,1914,316.316,97.335,13.567,30.564,31.313,37.966,6.653,775.7,680,430.2,13.6119,3.99132,0.094,33.4558,18,May,2023,13:42:55,8.03075600127009,7,5.78,0,1684417201,2,2,2,2,2,2,2
2023-05-18 14:00:01+00:00,#0002995,05/18/2023,14:02:22,10.51,3.61,-3.55,14.14,52,-0.937209,1.5e-005,-0.780241,3.1e-005,-6.33,-2.006,5730,1914,307.436,94.67,13.599,30.868,31.617,38.261,6.644,786,680.4,429.2,13.6846,3.99656,0.096,33.4412,18,May,2023,14:02:55,8.03048413138908,7.13,5.78,0,1684418401,2,2,2,2,2,2,2
2023-05-18 14:20:02+00:00,#0002996,05/18/2023,14:22:22,10.52,3.61,-3.55,14.02,52,-0.937425,1e-005,-0.780073,4.1e-005,-6.45,-1.99,5730,1914,307.301,93.734,13.172,31.053,31.802,38.441,6.639,792.2,680.4,443,13.1312,3.94876,0.099,33.4782,18,May,2023,14:22:55,8.02908020505328,8.16,5.78,0,1684419602,2,2,2,2,2,2,2
2023-05-18 14:40:02+00:00,#0002997,05/18/2023,14:42:22,10.53,3.61,-3.55,14.14,52,-0.937901,1.4e-005,-0.780287,4.1e-005,-8.19,-1.973,5730,1914,316.439,96.274,13.057,30.772,31.521,38.153,6.632,782.9,681.7,446.7,13.0462,3.94204,0.1,33.4897,18,May,2023,14:42:55,8.01903250218177,8.22,5.78,0,1684420802,2,2,2,2,2,2,2
2023-05-18 15:00:02+00:00,#0002998,05/18/2023,15:02:22,10.51,3.6,-3.55,14.02,52,-0.938112,8e-006,-0.780367,7e-005,-9.67,-2.03,5730,1914,319.118,96.944,12.99,30.706,31.455,38.077,6.622,780.8,683,448.9,12.9988,3.93849,0.104,33.4979,18,May,2023,15:02:55,8.01730282164973,8.34,5.78,0,1684422002,2,2,2,2,2,2,2
2023-05-18 15:20:02+00:00,#0002999,05/18/2023,15:22:22,10.51,3.6,-3.55,13.63,52,-0.938406,1.1e-005,-0.78037,4.1e-005,-7.36,-1.946,5730,1914,320.161,96.94,12.843,30.731,31.48,38.09,6.61,782,683.8,453.6,12.847,3.92511,0.105,33.5053,18,May,2023,15:22:55,8.01827356178487,9.01,5.78,0,1684423202,2,2,2,2,2,2,2
2023-05-18 15:40:02+00:00,#0003000,05/18/2023,15:42:22,10.54,3.6,-3.55,13.76,52,-0.938669,1.3e-005,-0.780484,3e-005,-1.68,-1.96,5730,1914,320.171,96.973,12.857,30.725,31.474,38.077,6.602,781.8,684.9,453.2,12.8897,3.92942,0.105,33.5084,18,May,2023,15:42:55,8.01168894953292,9.13,5.78,0,1684424402,2,2,2,2,2,2,2
2023-05-18 16:00:02+00:00,#0003001,05/18/2023,16:02:22,10.5,3.6,-3.55,13.5,52,-0.938884,1.1e-005,-0.780641,3.2e-005,-12.21,-1.886,5730,1914,317.815,96.252,12.853,30.809,31.558,38.157,6.599,784.8,685.4,453.3,12.9071,3.93036,0.107,33.502,18,May,2023,16:02:55,8.01183162297643,8.65,5.78,0,1684425602,2,2,2,2,2,2,2
2023-05-18 16:20:02+00:00,#0003002,05/18/2023,16:22:22,10.51,3.6,-3.54,13.5,52,-0.938999,1e-005,-0.780672,4.2e-005,-6.45,-1.975,5730,1914,315.7,95.493,12.798,30.907,31.656,38.246,6.59,788.5,685.7,455.1,12.8374,3.92439,0.108,33.5069,18,May,2023,16:22:55,8.00987935771614,8.59,5.78,0,1684426802,2,2,2,2,2,2,2
2023-05-18 16:40:02+00:00,#0003003,05/18/2023,16:42:22,10.52,3.6,-3.54,13.37,52,-0.939243,1.3e-005,-0.780756,3.6e-005,-10.38,-1.927,5730,1914,314.392,95.081,12.79,30.957,31.706,38.286,6.58,790,686,455.3,12.8385,3.92464,0.108,33.5084,18,May,2023,16:42:55,8.0076134432684,8.34,5.78,0,1684428002,2,2,2,2,2,2,2
2023-05-18 17:00:02+00:00,#0003004,05/18/2023,17:02:22,10.5,3.6,-3.54,13.24,52,-0.939433,1.1e-005,-0.780845,3.3e-005,-8.5,-1.963,5730,1914,313.205,94.692,12.776,31.006,31.755,38.331,6.576,791.6,686.2,455.8,12.8188,3.92327,0.109,33.5129,18,May,2023,17:02:55,8.00633691587953,8.59,5.78,0,1684429202,2,2,2,2,2,2,2
2023-05-18 17:20:02+00:00,#0003005,05/18/2023,17:22:22,10.51,3.6,-3.54,13.63,52,-0.939385,1.5e-005,-0.780766,3.6e-005,-6.85,-1.954,5730,1914,313.107,94.574,12.735,31.027,31.776,38.349,6.573,792.4,686.3,457.1,12.7683,3.91878,0.11,33.5149,18,May,2023,17:22:55,8.00120510511616,8.59,5.78,0,1684430402,2,2,2,2,2,2,2
2023-05-18 17:40:02+00:00,#0003006,05/18/2023,17:42:22,10.52,3.6,-3.55,13.5,52,-0.939563,9e-006,-0.780789,4.5e-005,-2.41,-2.001,5730,1914,313.982,94.78,12.707,31.007,31.756,38.326,6.57,791.8,686.4,458,12.7414,3.91618,0.112,33.514,18,May,2023,17:42:55,8.000064105287,8.83,5.78,0,1684431602,2,2,2,2,2,2,2
2023-05-18 18:00:02+00:00,#0003007,05/18/2023,18:02:22,10.5,3.6,-3.55,13.89,52,-0.939578,1.6e-005,-0.780831,4.2e-005,-7.65,-1.969,5730,1914,315.135,95.127,12.707,30.966,31.715,38.276,6.561,790.5,686.6,458,12.7481,3.9169,0.113,33.5149,18,May,2023,18:02:55,7.99381457363834,8.65,5.54,0,1684432802,2,2,2,2,2,2,2
2023-05-18 18:20:02+00:00,#0003008,05/18/2023,18:22:22,10.5,3.6,-3.55,13.37,52,-0.939591,9e-006,-0.780774,2e-005,-7.28,-1.926,5730,1914,316.131,95.309,12.651,30.954,31.703,38.26,6.557,790.3,686.8,459.8,12.6803,3.91082,0.112,33.5172,18,May,2023,18:22:55,8.00161731765884,9.44,5.78,0,1684434002,2,2,2,2,2,2,2
2023-05-18 18:40:02+00:00,#0003009,05/18/2023,18:42:22,10.49,3.6,-3.54,13.11,52,-0.939729,1.5e-005,-0.780801,7e-005,-6.1,-1.957,5730,1914,316.146,95.262,12.627,30.964,31.713,38.271,6.558,790.6,687,460.6,12.6576,3.90897,0.113,33.5197,18,May,2023,18:42:55,8.00322423469061,,,0,1684435202,4,4,4,4,4,9,9
2023-05-18 19:00:02+00:00,#0003010,05/18/2023,19:02:22,10.54,3.6,-3.54,13.63,52,-0.939953,1.2e-005,-0.780934,6.2e-005,-7.98,-1.918,5730,1914,314.963,94.833,12.593,31.02,31.769,38.324,6.554,792.5,687.3,461.7,12.6287,3.90656,0.115,33.5224,18,May,2023,19:02:55,7.99132966955934,,,0,1684436402,4,4,4,4,4,9,9
2023-05-18 19:20:02+00:00,#0003011,05/18/2023,19:22:22,10.5,3.6,-3.55,13.24,52,-0.940217,1.6e-005,-0.781026,4.2e-005,-4.67,-1.933,5730,1914,313.257,94.184,12.53,31.108,31.857,38.407,6.549,795.4,687.5,463.7,12.5472,3.89957,0.115,33.528,18,May,2023,19:22:55,7.99275504313522,,,0,1684437602,4,4,4,4,4,9,9
2023-05-18 19:40:02+00:00,#0003012,05/18/2023,19:42:22,10.5,3.6,-3.55,13.11,52,-0.940616,8e-006,-0.781238,4e-005,-12.06,-1.887,5730,1914,310.974,93.438,12.502,31.203,31.952,38.499,6.547,798.8,687.8,464.6,12.523,3.89769,0.117,33.5317,18,May,2023,19:42:55,7.9877786772641,,,0,1684438802,4,4,4,4,4,9,9
2023-05-18 20:00:02+00:00,#0003013,05/18/2023,20:02:22,10.5,3.6,-3.55,12.98,52,-0.940908,1.4e-005,-0.781392,4.3e-005,-6.53,-1.894,5730,1914,309.582,92.94,12.463,31.27,32.019,38.561,6.542,801.2,688.1,465.8,12.4901,3.89397,0.117,33.5254,18,May,2023,20:02:55,7.98453855896182,,,0,1684440002,4,4,4,4,4,9,9
2023-05-18 20:20:02+00:00,#0003014,05/18/2023,20:22:22,10.5,3.6,-3.54,13.11,52,-0.941154,1e-005,-0.781516,1.5e-005,-6.64,-1.937,5730,1914,307.983,92.384,12.427,31.344,32.093,38.63,6.537,803.6,688.4,467,12.4349,3.88993,0.118,33.5358,18,May,2023,20:22:55,7.97836510284366,8.16,5.78,0,1684441202,4,4,4,4,4,9,9
2023-05-18 20:40:02+00:00,#0003015,05/18/2023,20:42:22,10.5,3.6,-3.54,13.11,52,-0.941492,1.4e-005,-0.78167,2.8e-005,-9.86,-1.888,5730,1914,306.04,91.694,12.376,31.438,32.187,38.723,6.536,807,688.6,468.7,12.4015,3.88607,0.118,33.5286,18,May,2023,20:42:55,7.97231187792037,8.1,5.78,0,1684442402,4,4,4,4,4,9,9
2023-05-18 21:00:02+00:00,#0003016,05/18/2023,21:02:22,10.49,3.6,-3.55,13.11,52,-0.941794,1.1e-005,-0.781779,2.1e-005,-10.48,-1.927,5730,1914,305.034,91.375,12.367,31.479,32.228,38.758,6.53,808.6,689,468.9,12.398,3.88684,0.116,33.5391,18,May,2023,21:02:55,7.96714434979569,7.92,6.02,0,1684443602,4,4,4,4,4,9,9
2023-05-18 21:20:02+00:00,#0003017,05/18/2023,21:22:22,10.49,3.6,-3.55,12.98,52,-0.941825,1.5e-005,-0.781798,4.4e-005,-11.54,-1.889,5730,1914,304.213,91.299,12.45,31.474,32.223,38.752,6.529,808.5,689.2,466.3,12.506,3.89605,0.114,33.5311,18,May,2023,21:22:55,7.96846786867438,,,0,1684444802,4,4,4,4,4,9,9
2023-05-18 21:40:02+00:00,#0003018,05/18/2023,21:42:23,10.51,3.6,-3.54,12.98,52,-0.941933,1.2e-005,-0.781802,4e-005,-10.86,-1.927,5730,1914,302.867,90.855,12.43,31.533,32.282,38.808,6.526,810.4,689.1,466.9,12.4783,3.89438,0.114,33.5399,18,May,2023,21:42:55,7.96669087276517,,,0,1684446002,4,4,4,4,4,9,9
2023-05-18 22:00:02+00:00,#0003019,05/18/2023,22:02:22,10.5,3.6,-3.54,12.98,52,-0.942291,1.3e-005,-0.782008,4e-005,-0.76,-1.91,5730,1914,298.566,89.703,12.498,31.666,32.415,38.935,6.52,815.1,689.1,464.7,12.5534,3.90108,0.113,33.5371,18,May,2023,22:02:55,7.96034526749899,,,0,1684447202,4,4,4,4,4,9,9
2023-05-18 22:20:02+00:00,#0003020,05/18/2023,22:22:23,10.5,3.6,-3.54,12.98,52,-0.942466,1.7e-005,-0.782161,6.3e-005,-12.68,-1.882,5730,1914,296.375,88.994,12.473,31.761,32.51,39.026,6.516,818.1,688.8,465.5,12.5087,3.89679,0.113,33.5358,18,May,2023,22:22:55,7.95724434332013,,,0,1684448402,4,4,4,4,4,9,9
2023-05-18 22:40:02+00:00,#0003021,05/18/2023,22:42:22,10.5,3.6,-3.54,13.76,52,-0.942197,1.3e-005,-0.781844,3.6e-005,-9.9,-1.929,5730,1914,300.261,90.108,12.447,31.624,32.373,38.891,6.518,813.5,688.6,466.4,12.49,3.89425,0.113,33.5281,18,May,2023,22:42:55,7.94999606592668,,,0,1684449602,4,4,4,4,4,9,9
2023-05-18 23:00:02+00:00,#0003022,05/18/2023,23:02:22,10.5,3.6,-3.55,12.6,52,-0.942309,7e-006,-0.781851,3.2e-005,-12.09,-1.963,5730,1914,300.949,90.17,12.376,31.628,32.377,38.895,6.518,813.7,688.6,468.6,12.3954,3.88677,0.112,33.5408,18,May,2023,23:02:55,7.96586826620656,6.82,6.02,0,1684450802,4,4,4,4,4,9,9
2023-05-18 23:20:01+00:00,#0003023,05/18/2023,23:22:22,10.5,3.6,-3.55,12.6,52,-0.941751,2.4e-005,-0.782018,7.4e-005,-9.28,-1.958,5730,1914,298.948,90.86,13.011,31.432,32.181,38.697,6.517,806.9,689.1,448.2,13.1333,3.95348,0.112,33.5209,18,May,2023,23:22:54,7.97542604961354,7,6.26,0,1684452001,4,4,4,4,4,9,9
2023-05-18 23:40:02+00:00,#0003024,05/18/2023,23:42:23,10.51,3.6,-3.55,13.5,52,-0.939371,1.9e-005,-0.780416,1.7e-005,-7.52,-1.976,5730,1914,318.692,97.145,13.143,30.657,31.406,37.922,6.516,780.3,687.3,443.9,13.3023,3.96786,0.112,33.5076,18,May,2023,23:42:55,8.00334885968914,7.43,6.26,0,1684453202,4,4,4,4,4,9,9
2023-05-19 00:00:02+00:00,#0003025,05/19/2023,00:02:23,10.54,3.6,-3.55,13.89,52,-0.936695,3e-005,-0.779336,2.3e-005,-8.94,-2.106,5730,1914,328.449,102.268,14.102,29.929,30.678,37.206,6.528,755.2,685.8,412.9,14.3987,4.07078,0.113,33.507,19,May,2023,00:02:55,8.04432206962684,,,0,1684454402,4,4,4,4,4,9,9